Location: Dimbou
(14.7413°N, 3.1702°W)
Time: 23:29:27
(UTC+00:00)

Daily predictions for brighter satellites

Satellite Brightness Start Highest point End
(mag) Time Altitude Azimuth Time Altitude Azimuth Time Altitude Azimuth
Delta 2 Rocket 3.9 18:06:49 10° WSW 18:12:47 80° SSE 18:19:07 10° ENE
CZ-4 R/B 2.5 18:11:14 10° SE 18:14:26 23° ENE 18:17:41 10° NNE
CORIOLIS 4.2 18:10:06 10° SSE 18:15:27 89° W 18:20:47 10° NNW
Meteor 1-16 Rocket 4.3 18:11:48 10° S 18:17:30 62° E 18:23:01 10° NNE
Ariane H10+ 4.2 18:14:44 10° SW 18:17:51 26° SSE 18:27:14 10° ESE
Cosmos 1606 Rocket 4.1 18:17:48 10° SSW 18:22:12 66° W 18:26:34 10° N
Cosmos 1825 Rocket 4.0 18:20:01 10° NNE 18:24:08 40° E 18:28:17 10° SSE
Cosmos 1908 4.2 18:21:24 10° SSE 18:24:41 26° E 18:28:00 10° NE
USA 116 3.5 18:23:25 10° N 18:26:42 79° WNW 18:30:21 10° SSW
SL-14 R/B 3.7 18:24:11 10° NNW 18:27:59 65° W 18:31:47 10° S
Cosmos 1943 3.9 18:22:33 10° NNW 18:28:04 58° WSW 18:33:32 10° S
Cosmos 1486 Rocket 4.3 18:23:20 10° N 18:28:26 46° ENE 18:33:31 10° SSE
Meteor 2-10 4.0 18:26:55 10° S 18:32:08 64° E 18:37:12 10° NNE
Cosmos 2278 Rocket 2.3 18:28:53 10° S 18:34:21 52° ESE 18:39:49 10° NNE
Cosmos 489 Rocket 4.5 18:29:51 10° S 18:36:07 87° E 18:42:19 10° NNE
Meteor 1-21 Rocket 4.3 18:30:46 10° N 18:36:27 58° E 18:42:01 10° SSE
YAOGAN 6 2.8 18:34:19 10° SSE 18:37:52 47° ENE 18:41:25 10° N
GPS 2-18 Rocket1 4.3 18:34:22 10° SW 18:37:58 32° SSE 18:40:27 17° ESE
USA 238 DEB 3.8 18:32:11 10° S 18:38:33 51° ESE 18:44:58 10° NE
USA 238 3.8 18:32:18 10° S 18:38:40 50° ESE 18:45:04 10° NE
GPS 2-12 Rocket1 3.4 18:35:45 10° W 18:40:14 54° N 18:43:27 17° ENE
ADEOS Rocket 4.5 18:36:42 10° NE 18:41:42 20° E 18:46:25 10° SE
Cosmos 2285 Rocket 4.5 18:37:04 10° N 18:42:56 38° ENE 18:48:45 10° SE
Intelsat 5-2 Rocket 4.2 18:40:41 10° WNW 18:44:34 56° NNE 18:52:14 18° E
Cosmos 1758 Rocket 3.6 18:42:00 10° N 18:46:27 85° W 18:50:56 10° S
Cosmos 1174 3.6 18:43:54 10° NNW 18:46:48 59° WSW 18:49:46 10° SSE
Centaur D-1A AC-31 1.2 18:42:40 10° SW 18:47:02 50° SSE 18:48:36 24° E
BREEZE-M DEB (TANK) 4.4 18:34:09 10° SSW 18:48:07 39° SE 18:51:18 21° E
ASTEX 1 4.1 18:43:38 10° N 18:48:30 58° W 18:53:23 10° SSW
Cosmos 968 Rocket 4.0 18:43:50 10° N 18:48:40 37° ENE 18:53:27 10° SE
YAOGAN 1 2.6 18:45:03 10° SSE 18:49:15 52° ENE 18:53:26 10° N
GOES 2 Rocket 3.9 18:46:06 10° W 18:50:06 45° SSW 18:54:15 12° SE
Meteor 2-12 Rocket 4.4 18:44:38 10° N 18:50:48 87° E 18:56:57 10° S
Cosmos 1503 Rocket 4.2 18:53:54 10° N 18:58:50 46° ENE 19:03:48 10° SSE
CZ-2D R/B 4.1 19:02:34 30° NE 19:02:34 30° NE 19:05:05 10° N
CSL-04 Rocket 3.6 18:59:49 10° SSE 19:05:22 83° ENE 19:10:55 10° N
USA 234 3.6 18:59:29 10° NNE 19:05:56 66° NW 19:12:24 10° SW
NOAA 11 4.5 19:01:00 10° SE 19:06:07 43° ENE 19:11:14 10° N
NOSS 3-2 (A) 3.1 19:01:16 10° SSW 19:06:41 70° ESE 19:11:13 16° NNE
CZ-4C R/B 3.3 18:59:35 10° N 19:07:20 49° ENE 19:14:23 14° SE
Cosmos 1339 Rocket 4.4 19:01:53 10° S 19:07:57 87° W 19:14:01 10° N
Hubble Space Telescope 1.0 19:06:29 10° WNW 19:10:34 63° SSW 19:11:59 37° SE
EO 1 Delta rocket 3.9 19:08:45 10° S 19:14:09 87° E 19:18:49 10° N
Cosmos 1271 Rocket 3.9 19:18:01 10° NNW 19:21:49 44° W 19:25:38 10° SSW
Cosmos 1727 Rocket 3.9 19:18:45 10° S 19:24:59 86° E 19:31:10 10° N
NOSS 3-2 (C) 3.1 19:22:18 10° SSW 19:27:41 61° ESE 19:28:19 57° E
ISS -0.4 19:27:11 10° WSW 19:27:57 11° SW 19:28:44 10° SW
Atlas Centaur 2 2.0 19:24:24 10° NW 19:29:42 52° NNE 19:29:42 52° NNE
Cosmos 1605 Rocket 3.8 19:31:29 10° N 19:37:36 80° E 19:43:41 10° S
ATLAS 5 CENTAUR R/B 3.5 19:31:28 10° SW 19:37:52 60° SSE 19:45:26 37° E
Cosmos 44 4.4 19:38:39 10° SSW 19:41:43 35° S 19:41:43 35° S
Centaur AC-102 3.3 19:37:38 10° W 19:46:45 83° N 19:47:06 77° NE
Meteor 1-11 4.5 19:51:18 10° NNW 19:57:02 69° W 20:02:48 10° S
Ariane Rocket 4.4 20:13:32 35° WNW 20:13:32 35° WNW 20:17:15 10° NNW
ATLAS 3B R/B 3.1 20:05:51 10° SSW 20:11:06 55° SSW 20:11:06 55° SSW
ADEOS Rocket 4.1 20:20:05 10° N 20:27:11 48° WNW 20:33:41 10° SW
CENTAUR R/B 4.1 20:22:54 10° SW 20:24:41 21° SW 20:24:41 21° SW
CZ-3B R/B 4.3 20:20:20 10° WNW 20:42:17 61° N 20:43:58 59° NNE
